This is the latest recevied weather packets stored in our database for station/object AC1IX. If no packets are shown the sender has not sent any weather packets the latest 1 day(s).
| Time | Temp. | Humidity | Pressure | Rain* | Wind** | Luminosity | Snow |
|---|---|---|---|---|---|---|---|
| 1778007592 | 27.22° C | 40% | 1006.1 hPa | 0 mm | 0.45 m/s, 255° | 192 W/m² | - |
| 1778007290 | 27.78° C | 37% | 1006 hPa | 0 mm | 1.79 m/s, 322° | 604 W/m² | - |
| 1778006986 | 28.33° C | 38% | 1006 hPa | 0 mm | 0.89 m/s, 344° | 704 W/m² | - |
| 1778006683 | 28.89° C | 39% | 1006.1 hPa | 0 mm | 0.45 m/s, 294° | 525 W/m² | - |
| 1778006379 | 27.78° C | 38% | 1005.7 hPa | 0 mm | 0.45 m/s, 276° | 658 W/m² | - |
| 1778006076 | 27.78° C | 40% | 1006.1 hPa | 0 mm | 0.45 m/s, 287° | 492 W/m² | - |
| 1778005773 | 27.78° C | 42% | 1006.2 hPa | 0 mm | 0.45 m/s, 201° | 635 W/m² | - |
| 1778005470 | 27.22° C | 40% | 1006.4 hPa | 0 mm | 1.34 m/s, 292° | 608 W/m² | - |
| 1778005166 | 27.22° C | 39% | 1006.3 hPa | 0 mm | 0.89 m/s, 287° | 587 W/m² | - |
| 1778004864 | 27.22° C | 40% | 1006.2 hPa | 0 mm | 0.45 m/s, 273° | 789 W/m² | - |
| 1778004561 | 26.67° C | 41% | 1006.3 hPa | 0 mm | 0.89 m/s, 290° | 622 W/m² | - |
| 1778004257 | 27.22° C | 40% | 1006.4 hPa | 0 mm | 0.89 m/s, 227° | 188 W/m² | - |
| 1778003953 | 26.67° C | 42% | 1006.5 hPa | 0 mm | 0.45 m/s, 291° | 821 W/m² | - |
| 1778003650 | 25.56° C | 41% | 1006.8 hPa | 0 mm | 1.79 m/s, 295° | 826 W/m² | - |
| 1778003346 | 26.67° C | 39% | 1006.9 hPa | 0 mm | 1.34 m/s, 274° | 746 W/m² | - |
| 1778003044 | 27.22° C | 40% | 1007.2 hPa | 0 mm | 0.89 m/s, 298° | 326 W/m² | - |
| 1778002740 | 27.22° C | 39% | 1007.2 hPa | 0 mm | 2.24 m/s, 226° | 668 W/m² | - |
| 1778002436 | 27.22° C | 40% | 1007.2 hPa | 0 mm | 0.45 m/s, 280° | 133 W/m² | - |
| 1778002133 | 26.67° C | 41% | 1007.1 hPa | 0 mm | 2.24 m/s, 202° | 751 W/m² | - |
| 1778001831 | 26.67° C | 41% | 1007.2 hPa | 0 mm | 0.89 m/s, 285° | 787 W/m² | - |
| 1778001531 | 26.67° C | 42% | 1007.3 hPa | 0 mm | 0.89 m/s, 12° | 143 W/m² | - |
| 1778001228 | 26.67° C | 41% | 1007 hPa | 0 mm | 0.89 m/s, 258° | 658 W/m² | - |
| 1778000924 | 26.67° C | 40% | 1007.1 hPa | 0 mm | 0.89 m/s, 51° | 685 W/m² | - |
| 1778000621 | 26.11° C | 44% | 1007.2 hPa | 0 mm | 0.89 m/s, 188° | 244 W/m² | - |
| 1778000316 | 26.11° C | 42% | 1007.2 hPa | 0 mm | 1.34 m/s, 312° | 445 W/m² | - |
* Rain latest hour (hover to see other rain measurements)
** Current wind speed in m/s (hover to see current wind gust speed)